Regional Weather Roundup
Issued by NWS

Home | Current Version | Previous Version | Graphics & Text | Print | Product List | Glossary On
Versions: 1 2 3 4 5 6 7 8 9 10 11 12 13 14 15 16 17 18 19 20 21 22 23 24 25 26 27 28 29 30 31 32 33 34 35 36 37 38 39 40 41 42 43 44 45 46 47 48 49 50
000
ASUS45 KSLC 290510
RWRUT

UTAH REGIONAL WEATHER ROUNDUP
NATIONAL WEATHER SERVICE SALT LAKE CITY UT
1100 PM MDT THU MAY 28 2015

UTZ001>011-023>025-290600-

NORTHERN UTAH

CITY           SKY/WX    TMP DP  RH WIND       PRES   REMARKS
BRIGHAM CITY   CLEAR     56  47  72 CALM      30.17R
HILL AFB       CLEAR     56  41  57 E9        30.17R
LOGAN          CLEAR     51  47  86 SW3       30.19R
OGDEN          CLEAR     59  43  55 N6        30.15R
PROVO AIRPORT  CLEAR     59  43  55 NE8       30.16R
SALT LAKE CITY PTCLDY    60  44  55 S5        30.14R
VERNAL         CLEAR     49  43  80 NW5       30.19R
WENDOVER       PTCLDY    64  50  59 NE14      30.15R
HEBER CITY     CLEAR     45  39  81 S3        30.21R
WEST JORDAN    CLEAR     54  45  71 W3        30.16R

$$

UTZ012>022-026-027-290600-

SOUTHERN/CENTRAL UTAH

CITY           SKY/WX    TMP DP  RH WIND       PRES   REMARKS
BLANDING       MOCLDY    59  41  52 N12       30.23S
BRYCE CANYON   MOCLDY    49  41  74 NW12      30.30F
CEDAR CITY     MOCLDY    60  40  47 N8        30.16R
DELTA          CLEAR     58  45  62 CALM      30.16R
HANKSVILLE     CLEAR     61  37  41 W3        30.12R
MILFORD        PTCLDY    58  50  75 W5        30.15R
MOAB/CYNLANDS  MOCLDY    62  41  46 E14       30.11R
PRICE          CLEAR     52  39  61 N9        30.19R
ST GEORGE      CLEAR     77  43  29 NE23G35   29.98R
KANAB          PTCLDY    66  37  34 N8        30.16R

$$

REGIONAL REPORTS     COLORADO/ARIZONA

CITY           SKY/WX    TMP DP  RH WIND       PRES   REMARKS
CRAIG, CO      CLOUDY    47  41  80 E3        30.24R
GRAND JUNCTION PTCLDY    53  48  83 CALM      30.17R
RIFLE          MOCLDY    53  42  66 S7        30.21F
MONTROSE       MOCLDY    52  41  66 SE8       30.22R
CORTEZ         PTCLDY    56  43  61 E9        30.17F
PAGE, AZ       PTCLDY    74  38  27 N7        30.08R
GRAND CANYON   PTCLDY    48  36  63 CALM      30.20R
KINGMAN        CLOUDY    75  22  13 S10       30.00R
FLAGSTAFF      PTCLDY    48  24  39 CALM      30.25R

$$

REGIONAL REPORTS    NEVADA/IDAHO/WYOMING

CITY           SKY/WX    TMP DP  RH WIND       PRES   REMARKS
LAS VEGAS, NV  CLOUDY    89  27  10 SW9       29.83R
ELY            PTCLDY    51  42  71 S8        30.19R
ELKO           CLEAR     60  42  51 E3        30.14R
POCATELLO, ID  CLEAR     53  49  86 NE3       30.19R
BURLEY         PTCLDY    58  43  57 E7        30.15R
EVANSTON, WY   CLEAR     48  37  65 NE3       30.27R
ROCK SPRINGS   MOCLDY    45  39  79 W7        30.24R
KEMMERER       PTCLDY    41  36  81 NW3       30.27S

$$



USA.gov is the U.S. government's official web portal to all federal, state and local government web resources and services.